Voltar ao catálogo

PSLV R/B

AtivoSSO
NORAD 37390·ROCKET BODY·🇮🇳 India

Lançado Apr 20, 2011 de Satish Dhawan Space Centre

Loading…

Próximas Passagens (próximas 24 horas)

TLE

AtualizadoSource: Space-Track

Época: Sep 14, 2026, 15:29 UTC

1 37390U 11015D   26257.64559021  .00000075  00000-0  47127-4 0  9991
2 37390  98.5169 205.3652 0018497  15.6184 157.3801 14.28358071802597

Acompanhe PSLV R/B em tempo real com AllMySat

Download on the App Store